Parc national de Yoho, Colombie-Britannique

Conditions des dernières 24 heures

Date / Heure
(HAR)
Conditions Temp
(°C)
Humidité
(%)
Point de rosée
(°C)
Vent
(km/h)
Pression
(kPa)
Visibilité
(km)
22 octobre 2014
21:00 N.D. 3 100 3 SO 2 100,9 N.D.
20:00 N.D. 3 99 3 SO 5 100,8 N.D.
19:00 N.D. 3 99 3 ENE 2 100,9 N.D.
18:00 N.D. 3 98 3 NE 4 100,9 N.D.
17:00 N.D. 3 96 3 O 16 100,9 N.D.
16:00 N.D. 3 95 3 O 14 100,9 N.D.
15:00 N.D. 4   92 3 OSO 25 100,9 N.D.
14:00 N.D. 4   88 2 OSO 24 rafale 36 101,0 N.D.
13:00 N.D. 4   90 3 OSO 26 rafale 37 100,9 N.D.
12:00 N.D. 3 93 2 OSO 21 101,0 N.D.
11:00 N.D. 2 96 2 O 27 101,0 N.D.
10:00 N.D. 2 97 2 O 21 rafale 32 101,0 N.D.
9:00 N.D. 1   99 1 OSO 18 101,0 N.D.
8:00 N.D. 1   100 1 O 25 101,1 N.D.
7:00 N.D. 2 98 2 O 24 101,1 N.D.
6:00 N.D. 2 99 2 OSO 19 rafale 28 101,1 N.D.
5:00 N.D. 2 100 2 O 19 101,1 N.D.
4:00 N.D. 2 100 2 OSO 23 101,1 N.D.
3:00 N.D. 2 100 2 O 20 101,2 N.D.
2:00 N.D. 2 99 2 SO 11 101,2 N.D.
1:00 N.D. 2 100 2 OSO 17 101,2 N.D.
0:00 N.D. 3 99 2 OSO 14 101,2 N.D.
21 octobre 2014
23:00 N.D. 3 99 3 O 19 101,2 N.D.
22:00 N.D. 4   99 4 O 22 101,2 N.D.
21:00 N.D. 4   99 4 O 21 101,1 N.D.
N.D. non disponible
↑ température la plus haute
↓ température la plus basse

Si vous désirez plus de données historiques sur les conditions météo, s.v.p. visitez Données climatologiques en ligne.

Date de modification :